Weather History for Baudette, MN

Change the Weather History Date:

Tuesday, October 2, 2012

  Actual Average Record
Temperature  
Mean Temperature 55 °F -  
Max Temperature 71 °F 60 °F 86 °F (1992)
Min Temperature 39 °F 36 °F 20 °F (1961)
Degree Days  
Heating Degree Days 10    
Growing Degree Days 5 (Base 50)    
Moisture  
Dew Point 33 °F    
Average Humidity 49    
Maximum Humidity 86    
Minimum Humidity 19    
Precipitation  
Precipitation 0.00 in - - ()
Sea Level Pressure  
Sea Level Pressure 29.79 in    
Wind  
Wind Speed 8 mph (South)    
Max Wind Speed 25 mph    
Max Gust Speed 36 mph    
Visibility 10 miles    
Events      
Averages and records for this station are not official NWS values.
T = Trace of Precipitation, MM = Missing Value Source: NWS Daily Summary

Daily Weather History Graph

Daily Weather History Graph

Search for Another Location

Airport:

Trip Planner

Search our weather history database for the weather conditions in past years. The results will help you decide how hot, cold, wet, or windy it might be!

Date:

Astronomy

Oct. 02, 2012 Rise Set
Actual Time 7:20 AM CDT 6:54 PM CDT
Civil Twilight 6:48 AM CDT 7:25 PM CDT
Nautical Twilight 6:12 AM CDT 8:01 PM CDT
Astronomical Twilight 5:35 AM CDT 8:38 PM CDT
Moon 7:49 PM CDT (10/2) 10:04 AM CDT (10/2)
Length of Visible Light 12h 36m
Length of Day
11h 33m
Waning Gibbous, 94% of the Moon is Illuminated
Oct 2
Waning Gibbous
Oct 8
Last Quarter
Oct 15
New
Oct 21
First Quarter
Oct 29
Full

Hourly Weather History & Observations

Time (CDT) Temp. Windchill Dew Point Humidity Pressure Visibility Wind Dir Wind Speed Gust Speed Precip Events Conditions
12:53 AM 39.0 °F - 34.0 °F 82% 29.95 in 10.0 mi Calm Calm - N/A   Clear
1:53 AM 41.0 °F - 34.0 °F 76% 29.94 in 10.0 mi Calm Calm - N/A   Clear
2:53 AM 41.0 °F - 33.1 °F 73% 29.92 in 10.0 mi Calm Calm - N/A   Clear
3:53 AM 39.9 °F - 34.0 °F 79% 29.91 in 10.0 mi Calm Calm - N/A   Clear
4:53 AM 39.0 °F 35.7 °F 35.1 °F 86% 29.91 in 10.0 mi South 4.6 mph - N/A   Clear
5:53 AM 42.8 °F 40.1 °F 37.4 °F 81% 29.88 in 10.0 mi South 4.6 mph - N/A   Clear
6:53 AM 44.1 °F 41.5 °F 37.0 °F 76% 29.90 in 10.0 mi South 4.6 mph - N/A   Clear
7:53 AM 45.0 °F 41.2 °F 37.0 °F 74% 29.88 in 10.0 mi South 6.9 mph - N/A   Clear
8:53 AM 48.0 °F - 37.0 °F 66% 29.86 in 10.0 mi South 8.1 mph - N/A   Clear
9:53 AM 55.9 °F - 36.0 °F 47% 29.82 in 10.0 mi South 18.4 mph 24.2 mph N/A   Clear
10:53 AM 61.0 °F - 34.0 °F 36% 29.80 in 10.0 mi South 13.8 mph 26.5 mph N/A   Clear
11:53 AM 64.9 °F - 32.0 °F 29% 29.75 in 10.0 mi South 24.2 mph 35.7 mph N/A   Clear
12:53 PM 66.2 °F - 30.2 °F 26% 29.72 in 10.0 mi South 25.3 mph 35.7 mph N/A   Clear
1:53 PM 68.0 °F - 30.0 °F 24% 29.70 in 10.0 mi South 23.0 mph 35.7 mph N/A   Clear
2:53 PM 70.0 °F - 30.0 °F 23% 29.66 in 10.0 mi South 18.4 mph 35.7 mph N/A   Clear
3:53 PM 71.1 °F - 27.0 °F 19% 29.68 in 10.0 mi SSW 24.2 mph 34.5 mph N/A   Clear
4:53 PM 70.0 °F - 28.0 °F 21% 29.67 in 10.0 mi SSW 20.7 mph 28.8 mph N/A   Scattered Clouds
5:53 PM 68.0 °F - 28.9 °F 23% 29.68 in 10.0 mi SSW 15.0 mph - N/A   Mostly Cloudy
6:53 PM 66.2 °F - 30.2 °F 26% 29.67 in 10.0 mi South 10.4 mph - N/A   Scattered Clouds
7:53 PM 64.0 °F - 30.9 °F 29% 29.70 in 10.0 mi South 12.7 mph - N/A   Mostly Cloudy
8:53 PM 57.0 °F - 33.1 °F 40% 29.72 in 10.0 mi SSW 6.9 mph - N/A   Mostly Cloudy
9:53 PM 54.0 °F - 34.0 °F 47% 29.73 in 10.0 mi SSW 8.1 mph - N/A   Clear
10:53 PM 52.0 °F - 33.1 °F 49% 29.74 in 10.0 mi SSW 5.8 mph - N/A   Clear
11:53 PM 50.0 °F - 32.0 °F 50% 29.75 in 10.0 mi South 4.6 mph - N/A   Partly Cloudy